Regional Weather Roundup
Issued by NWS San Angelo, TX

Home | Current Version | Previous Version | Text Only | Print | Product List | Glossary On
Versions: 1 2 3 4 5 6 7 8 9 10 11 12 13 14 15 16 17 18 19 20 21 22 23 24 25 26 27 28 29 30 31 32 33 34 35 36 37 38 39 40 41 42 43 44 45 46 47 48 49 50
000
ASUS44 KSJT 181810
RWRSJT
WEST CENTRAL TEXAS REGIONAL WEATHER ROUNDUP
NATIONAL WEATHER SERVICE SAN ANGELO TX
1200 PM CST SAT NOV 18 2017

NOTE: "FAIR" INDICATES FEW OR NO CLOUDS BELOW 12,000 FEET WITH NO
SIGNIFICANT WEATHER AND/OR OBSTRUCTIONS TO VISIBILITY.

TXZ049-054-064>066-071>073-076>078-098-099-113-114-127-128-139-140-
154-155-168>170-181900
...LOCATIONS ACROSS WEST CENTRAL TEXAS...

CITY           SKY/WX    TMP DP  RH WIND       PRES   REMARKS
SAN ANGELO     SUNNY     65  35  33 N29G35    30.16R
ABILENE        MOSUNNY   62  29  28 N26G37    30.14R
DYESS AFB      MOSUNNY   63  33  32 N25G33    30.14R
JUNCTION       SUNNY     69  40  34 N20G30    30.10R
SWEETWATER     MOSUNNY   61  25  25 N23G38    30.20R
BROWNWOOD      SUNNY     66  36  32 N26G36    30.09S
COLEMAN        CLEAR     66  34  30 N24G37    30.11S
SONORA         SUNNY     66  39  37 NE24G31   30.17R
OZONA          FAIR      64  34  32 N31G38    30.17R
BRADY          NOT AVBL
$$

TEXAS PANHANDLE/OKLAHOMA PANHANDLE

CITY           SKY/WX    TMP DP  RH WIND       PRES   REMARKS
AMARILLO       SUNNY     50  19  29 N30G39    30.28R
BORGER         SUNNY     52  19  27 N20G36    30.28R
CANADIAN       SUNNY     54  26  35 N26G38    30.22R
DALHART        SUNNY     50  15  24 N21G31    30.31R
DUMAS          CLEAR     48  18  30 N23G38    30.29R WCI  40
GUYMON         NOT AVBL
HEREFORD       PTCLDY    51  21  30 MISG      30.31R
PAMPA          CLEAR     53  19  26 N31G37    30.25R
PERRYTON       SUNNY     54  22  29 N30G39    30.22R
$$

SOUTHERN PANHANDLE/SOUTH PLAINS/ROLLING PLAINS

CITY           SKY/WX    TMP DP  RH WIND       PRES   REMARKS
LUBBOCK        MOSUNNY   57  20  23 N29G41    30.24R
SNYDER         MOSUNNY   61  24  24 N26G43    30.20R
CHILDRESS      SUNNY     58  30  34 N35G44    30.20S
SEMINOLE       CLEAR     55  22  27 N20G26    30.28S
$$

PERMIAN BASIN

CITY           SKY/WX    TMP DP  RH WIND       PRES   REMARKS
MIDLAND        SUNNY     61  26  26 N26G39    30.22R
ODESSA         SUNNY     59  26  28 N22G36    30.23R
WINK           MOSUNNY   60  28  29 NE32G43   30.23R
$$

FAR WEST/SOUTHWEST MOUNTAINS/TRANS PECOS

CITY           SKY/WX    TMP DP  RH WIND       PRES   REMARKS
ALPINE         CLEAR     67  31  26 N22G30    30.28R
DRYDEN           N/A     78  34  20 N24G39    30.10R
EL PASO        PTSUNNY   62  32  32 N16       30.21S
FORT STOCKTON  SUNNY     61  34  36 N23G30    30.23R
GUADALUPE PASS NOT AVBL
MARFA          SUNNY     66  31  27 N25G31    30.22R
PECOS          CLEAR     60  32  34 N14G25    30.26R
$$

DALLAS/FORT WORTH METROPLEX

CITY           SKY/WX    TMP DP  RH WIND       PRES   REMARKS
DFW AIRPORT    MOSUNNY   70  42  36 N26G40    29.97R
FTW MEACHAM    SUNNY     69  43  38 NW24G41   30.00R
DAL-EXECUTIVE  MOSUNNY   67  42  40 N22G40    29.97R
GRAND PRAIRIE  SUNNY     66  39  37 NW17G29   30.01R
ADDISON        MOSUNNY   66  41  39 NW21G33   29.99R
MESQUITE       CLEAR     68  45  42 NW24G31   29.98R
LANCASTER      CLEAR     66  43  42 NW26G37   29.98R
$$

NORTH CENTRAL TEXAS

CITY           SKY/WX    TMP DP  RH WIND       PRES   REMARKS
SHRMAN/DENISON PTCLDY    65  40  40 NW29G40   30.00R
GAINESVILLE    MOSUNNY   63  40  42 N31       30.04R
BRIDGEPORT     NOT AVBL
DENTON         SUNNY     68  42  38 N22G35    30.00R
WAXAHACHIE     CLEAR     67  44  43 NW25G31   30.00R
GRANBURY       CLEAR     68  42  38 NW20G28   30.05S
$$

WESTERN NORTH TEXAS

CITY           SKY/WX    TMP DP  RH WIND       PRES   REMARKS
WICHITA FALLS  MOSUNNY   63  38  39 N30G46    30.10R
VERNON         PTCLDY    60  27  28 N28G36    30.18R
BRECKENRIDGE   PTCLDY    66  33  29 N22G32    30.11R HAZE
COMANCHE       SUNNY     65  40  39 N24G38    30.08S
$$

CENTRAL AND SOUTH CENTRAL TEXAS

CITY           SKY/WX    TMP DP  RH WIND       PRES   REMARKS
AUSTIN/BERGSTM MOSUNNY   83  59  44 N20G31    29.91R
WACO           SUNNY     71  43  36 N24G35    29.99R
HILLSBORO      CLEAR     68  44  40 NW26G35   30.00R
TEMPLE         SUNNY     71  44  37 NW26G36   29.99R
KILLEEN-GRAY   SUNNY     70  42  36 N30G38    30.00R
FORT HOOD      SUNNY     69  42  38 NW25G36   29.97R
GEORGETOWN     SUNNY     76  46  34 N26G39    29.98R
LAGO VISTA     FAIR      76  47  34 N20G33    29.99R
SAN MARCOS     SUNNY     87  56  34 NW20G28   29.91F
NEW BRAUNFELS  SUNNY     84  63  49 NW9       29.89F
RANDOLPH AFB   SUNNY     81  65  58 NW5       29.91F
SAN ANTONIO    MOSUNNY   85  61  44 N14       29.92F
STINSON        SUNNY     82  65  56 VRB6      29.90F
PLEASANTON     NOT AVBL
LA GRANGE      SUNNY     84  67  57 W9        29.87F
GIDDINGS       PTCLDY    81  65  57 W9        29.91S
$$

EAST TEXAS

CITY           SKY/WX    TMP DP  RH WIND       PRES   REMARKS
PARIS          MOSUNNY   65  47  52 NW28G35   29.91R
CLARKSVILLE    NOT AVBL
TYLER          SUNNY     76  47  35 NW23G37   29.87R
LONGVIEW       PTSUNNY   82  63  51 W20G32    29.80R
PALESTINE      PTCLDY    78  62  56 W17       29.88R
NACOGDOCHES    PTSUNNY   79  67  66 W12G17    29.84F
$$

TEXAS HILL COUNTRY AND EDWARDS PLATEAU

CITY           SKY/WX    TMP DP  RH WIND       PRES   REMARKS
LLANO          CLEAR     70  43  37 NW25G31   30.09R
HORSESHOE BAY  FAIR      75  46  34 N23G31    30.02R
KERRVILLE      SUNNY     79  54  42 N24G38    30.00R
FREDERICKSBRG  SUNNY     73  43  33 N23G37    30.02R
ROCKSPRINGS    NOT AVBL
HONDO          SUNNY     91  48  22 N22       29.92F
UVALDE         CLEAR     85  48  27 N18       29.95
DEL RIO        SUNNY     81  54  39 NW16G26   29.99F
$$

SOUTHEAST TEXAS

CITY           SKY/WX    TMP DP  RH WIND       PRES   REMARKS
COLLEGE STN    PTSUNNY   82  66  58 W17G25    29.88S
CALDWELL       MOCLDY    81  65  57 NW14G24   29.89S
CROCKETT         N/A    N/A N/A N/A MISG        N/A
BRENHAM        MOSUNNY   82  68  62 SW13      29.89S
HUNTSVILLE     PTSUNNY   79  66  64 W12       29.88R
CONROE         PTSUNNY   80  70  71 SW12      29.87F
HOUSTON BUSH   PTSUNNY   81  69  67 W17G28    29.87F
HOUSTON HOBBY  PTSUNNY   82  69  64 SW23G29   29.86S
PERLAND        PTSUNNY   83  69  62 SW14G21   29.87F
WHARTON        PTCLDY    82  65  57 SW18G25   29.89F
$$

THE UPPER TEXAS COAST

CITY           SKY/WX    TMP DP  RH WIND       PRES   REMARKS
ORANGE         PTCLDY    82  69  64 SW17G24   29.87S
PORT ARTHUR    PTSUNNY   82  67  60 SW22G31   29.85S
GALVESTON      SUNNY     79  72  79 SW23G30   29.87F
ANGLETON       CLOUDY    82  68  62 SW14G25   29.86F
BAY CITY       CLOUDY    83  69  62 SW20G28   29.88S
$$

TEXAS COASTAL BEND, RIO GRANDE PLAINS DEEP SOUTH TEXAS

CITY           SKY/WX    TMP DP  RH WIND       PRES   REMARKS
VICTORIA       PTSUNNY   82  69  64 W12       29.89F
BEEVILLE       FAIR      80  68  65 W7        29.90F
ROCKPORT       MOSUNNY   83  70  64 VRB7      29.87F
PORT ARANSAS   NOT AVBL
PORT LAVACA    NOT AVBL
CORPUS CHRISTI MOSUNNY   84  68  58 SW17      29.87F
KINGSVILLE NAS SUNNY     87  69  54 SW15      29.86F
COTULLA        SUNNY     80  65  59 NW7       29.92S
LAREDO         SUNNY     79  68  69 N8        29.93R
BROWNSVILLE    SUNNY     88  71  57 S20       29.87F
PORT ISABEL    MOSUNNY   84  70  62 S16G25    29.85F
HEBBRONVILLE   CLEAR     78  64  63 CALM      29.91S
MCALLEN        SUNNY     85  68  56 S10       29.86F
WESLACO        SUNNY     85  65  51 S20G25    29.85F
FALFURRIAS     CLEAR     85  65  51 S10       29.87F
EDINBURG       CLEAR     87  64  46 S13       29.87S
$$




USA.gov is the U.S. government's official web portal to all federal, state and local government web resources and services.